Change the Weather History Date:

Monday, October 8, 2012

  Actual Average Record
Temperature  
Mean Temperature 55 °F 51 °F  
Max Temperature 69 °F 63 °F 84 °F (1911)
Min Temperature 40 °F 39 °F 21 °F (1985)
Degree Days  
Heating Degree Days 10 14  
Month to date heating degree days 109 101  
Since 1 July heating degree days 211 349  
Cooling Degree Days 0 0  
Month to date cooling degree days 0 0  
Year to date cooling degree days 535 449  
Growing Degree Days 6 (Base 50)    
Moisture  
Dew Point 25 °F    
Average Humidity 38    
Maximum Humidity 57    
Minimum Humidity 18    
Precipitation  
Precipitation 0.00 in 0.02 in 0.50 in (1912)
Month to date precipitation 0.00 0.19  
Year to date precipitation 13.96 10.97  
Snow  
Snow 0.00 in 0.00 in T in (1981)
Month to date snowfall 0.0 0.0  
Since 1 July snowfall 0.0 0.0  
Since 1 September snowfall 0.0 0.0  
Snow Depth 0.00 in    
Sea Level Pressure  
Sea Level Pressure 29.94 in    
Wind  
Wind Speed 7 mph (SSW)    
Max Wind Speed 15 mph    
Max Gust Speed 18 mph    
Visibility 10 miles    
Events      
T = Trace of Precipitation, MM = Missing Value Source: NWS Daily Summary

Daily Weather History Graph

Daily Weather History Graph

Search for Another Location

Airport or City:

Trip Planner

Search our weather history database for the weather conditions in past years. The results will help you decide how hot, cold, wet, or windy it might be!

Date:

Astronomy

Oct. 08, 2012 Rise Set
Actual Time 6:59 AM PDT 6:14 PM PDT
Civil Twilight 6:28 AM PDT 6:45 PM PDT
Nautical Twilight 5:53 AM PDT 7:20 PM PDT
Astronomical Twilight 5:17 AM PDT 7:56 PM PDT
Moon No Moon Rise 2:32 PM PDT (10/8)
Length of Visible Light 12h 16m
Length of Day
11h 14m
Last Quarter, 45% of the Moon is Illuminated
Oct 8
Last Quarter
Oct 15
New
Oct 21
First Quarter
Oct 29
Full
Nov 6
Last Quarter

Hourly Weather History & Observations

Time (PDT) Temp. Windchill Dew Point Humidity Pressure Visibility Wind Dir Wind Speed Gust Speed Precip Events Conditions
12:53 AM 48.0 °F - 23.0 °F 37% 29.96 in 10.0 mi SSE 6.9 mph - N/A   Partly Cloudy
1:53 AM 46.0 °F 41.4 °F 21.9 °F 39% 29.97 in 10.0 mi SSE 9.2 mph - N/A   Partly Cloudy
2:53 AM 45.0 °F 41.8 °F 21.9 °F 40% 29.97 in 10.0 mi SSE 5.8 mph - N/A   Partly Cloudy
3:53 AM 39.9 °F 37.8 °F 21.9 °F 49% 29.97 in 10.0 mi SSE 3.5 mph - N/A   Partly Cloudy
4:53 AM 45.0 °F 40.6 °F 26.1 °F 48% 29.96 in 10.0 mi SSE 8.1 mph - N/A   Partly Cloudy
5:53 AM 43.0 °F 38.2 °F 27.0 °F 53% 29.95 in 10.0 mi SSE 8.1 mph - N/A   Partly Cloudy
6:53 AM 43.0 °F 39.5 °F 28.0 °F 56% 29.95 in 10.0 mi SSE 5.8 mph - N/A   Scattered Clouds
7:53 AM 43.0 °F - 28.0 °F 56% 29.97 in 10.0 mi Calm Calm - N/A   Mostly Cloudy
8:53 AM 48.0 °F - 28.9 °F 48% 29.99 in 10.0 mi Calm Calm - N/A   Mostly Cloudy
9:53 AM 54.0 °F - 28.0 °F 37% 29.96 in 10.0 mi South 5.8 mph - N/A   Mostly Cloudy
10:53 AM 59.0 °F - 26.1 °F 28% 29.96 in 9.0 mi SW 5.8 mph - N/A   Mostly Cloudy
11:53 AM 62.1 °F - 24.1 °F 23% 29.95 in 10.0 mi SSW 8.1 mph - N/A   Scattered Clouds
12:53 PM 64.9 °F - 23.0 °F 20% 29.93 in 10.0 mi West 5.8 mph - N/A   Mostly Cloudy
1:53 PM 66.9 °F - 23.0 °F 19% 29.91 in 10.0 mi SW 10.4 mph - N/A   Scattered Clouds
2:53 PM 68.0 °F - 24.1 °F 19% 29.90 in 10.0 mi SW 10.4 mph - N/A   Partly Cloudy
3:53 PM 69.1 °F - 25.0 °F 19% 29.90 in 10.0 mi WSW 11.5 mph - N/A   Partly Cloudy
4:53 PM 68.0 °F - 25.0 °F 20% 29.88 in 10.0 mi WSW 11.5 mph - N/A   Partly Cloudy
5:53 PM 64.0 °F - 25.0 °F 23% 29.90 in 10.0 mi SSW 4.6 mph - N/A   Scattered Clouds
6:53 PM 59.0 °F - 26.6 °F 29% 29.90 in 10.0 mi SSW 5.8 mph - N/A   Scattered Clouds
7:53 PM 57.0 °F - 25.0 °F 29% 29.92 in 10.0 mi SW 8.1 mph - N/A   Scattered Clouds
8:53 PM 54.0 °F - 25.0 °F 33% 29.94 in 10.0 mi SW 8.1 mph - N/A   Scattered Clouds
9:53 PM 50.0 °F - 25.0 °F 38% 29.95 in 10.0 mi SW 5.8 mph - N/A   Scattered Clouds
10:53 PM 50.0 °F - 26.1 °F 39% 29.95 in 10.0 mi SW 6.9 mph - N/A   Scattered Clouds
11:53 PM 50.0 °F - 26.1 °F 39% 29.96 in 10.0 mi ENE 3.5 mph - N/A   Partly Cloudy